Weather in Blagoveshchenka

Russia / Altai Krai     52°50′02″N   79°52′07″E
temp.,
°C
wind,
m/s
gust,
m/s
humid.,
%
clouds,
%
prec.,
mm/h
press.,
hPa
HPBL,
m
29 july, thu
thu2901:00+15s33500 0.0 101025
04:00+14s34520 0.0 100956
07:00+14s365418 0.0 1009118
10:00+21ssw563724 0.0 1008478
13:00+26w4530100 0.0 10082008
16:00+27wnw3427100 0.0 10072941
19:00+20nnw91057100 0.0 1007379
22:00+16nnw357699 0.0 1008109
30 july, fri
fri3001:00+16nne2273100 0.1 100934
04:00+16n4765100 0.0 1009183
07:00+15n365688 0.0 1011173
10:00+19nnw45460 0.0 1013537
13:00+23nnw55300 0.0 10131655
16:00+24nnw45270 0.0 10132040
19:00+24nnw34274 0.0 10142042
22:00+19nw22385 0.0 101511
31 july, sat
sat3101:00+16n11455 0.0 101511
04:00+15sse2247100 0.0 101514
07:00+15sse3448100 0.0 101562
10:00+22ssw45345 0.0 1015505
13:00+26sw452663 0.0 10132009
16:00+28w3422100 0.0 10122624
19:00+28ese1323100 0.0 10111232
22:00+24sse3432100 0.0 101250
1 august, sun
sun101:00+21ssw453692 0.0 101178
04:00+19s33394 0.0 101130
07:00+19ssw22431 0.0 101119
10:00+26w23341 0.0 1010499
13:00+30wsw45265 0.0 10091880
16:00+31wnw553050 0.0 10082586
19:00+29nw553367 0.0 10081657
22:00+23nw4105113 0.0 1008188
2 august, mon
mon201:00+19nnw486710 0.0 1007131
04:00+17nw33805 0.0 100740
07:00+18w23775 0.0 100754
10:00+25w344719 0.0 1006504
13:00+30wsw453557 0.0 10051528
16:00+32w6829100 0.1 10023032
19:00+20nnw8129081 1.4 1002230
22:00+20nnw248419 6.2 1004166